Dewpoint
38 39 40 39 39 38 37 37 37 36 35 39 41 42 43 44 45 45 46 46 48 49 51 50 50 50 50 49 49 51 51 49 49 49 48 50 53 56 59 60 60 63 64
37 38 39 39 40 39 39 38 38 38 35 39 40 43 44 44 45 46 46 46 48 49 50 49 49 49 50 51 50 51 51 50 49 46 47 45 49 54 58 60 59 59 61
34 36 38 39 40 40 41 41 41 40 36 37 39 42 43 44 44 44 45 46 47 48 50 48 48 49 50 50 51 52 53 51 50 49 47 45 45 51 56 57 59 59 59
33 35 36 36 37 38 40 41 42 41 40 37 37 38 39 41 43 44 45 46 46 48 49 48 46 48 48 49 50 50 53 53 52 51 51 50 50 49 49 55 57 58 57
37 35 35 36 37 38 40 40 41 43 43 38 36 36 37 41 43 44 44 45 46 47 47 48 46 45 46 46 47 48 51 52 53 54 52 52 52 50 47 48 53 56 58
34 35 36 36 37 38 40 41 42 43 44 43 39 35 34 35 39 42 43 44 45 46 46 46 45 44 43 43 45 45 47 47 50 51 53 53 52 52 51 49 51 52 55
28 28 28 29 30 31 35 39 42 43 44 44 42 38 35 35 37 40 43 43 44 45 45 45 44 42 42 42 42 43 43 45 46 45 49 49 49 50 53 51 50 51 53
26 27 29 28 28 28 30 32 35 38 40 42 43 41 37 36 37 40 43 44 44 44 44 44 43 41 41 40 39 41 41 42 42 42 43 46 45 46 47 50 51 49 49
25 26 27 29 29 28 30 31 33 35 37 39 42 42 40 36 36 37 41 43 44 44 44 44 42 41 40 38 37 39 39 39 38 39 41 41 41 43 43 44 47 47 46
25 25 25 28 29 30 31 32 33 33 35 37 39 40 41 39 36 35 37 40 42 43 43 43 41 39 39 38 36 36 36 35 37 38 37 37 38 37 37 39 39 41 46
26 24 24 28 29 30 31 32 32 32 32 32 33 36 38 39 36 34 34 37 39 41 41 41 39 37 36 36 34 33 33 32 32 33 35 35 34 35 35 37 37 37 38
28 27 28 30 30 31 31 31 31 32 32 32 32 32 34 36 35 34 34 33 35 37 39 39 37 36 35 33 32 31 31 31 31 32 32 32 31 33 34 35 34 34 34
29 29 30 30 30 31 31 31 32 32 32 32 32 32 31 32 32 32 32 31 33 34 36 35 34 32 31 29 29 30 29 30 31 31 31 32 30 32 33 33 33 33 33
29 31 31 31 31 31 31 32 32 32 33 33 33 32 32 32 32 32 31 30 30 30 32 33 32 30 28 27 27 28 27 28 29 30 32 31 31 31 32 32 32 32 32
30 31 31 31 31 31 31 32 32 33 33 33 33 33 33 33 33 32 32 31 30 29 28 29 30 28 26 25 27 28 29 28 28 30 31 31 32 34 34 32 32 31 31
31 31 31 32 31 31 31 32 32 33 34 34 34 34 34 34 34 33 33 32 31 30 27 26 26 27 25 30 34 33 29 29 29 28 29 31 35 35 36 35 35 33 30
31 31 32 32 31 31 32 32 33 33 34 34 34 34 34 34 34 34 34 33 32 30 28 27 26 25 25 32 34 38 34 30 30 29 29 29 30 33 29 33 34 34 35
31 32 32 32 32 32 32 32 33 33 34 34 34 34 34 34 34 34 34 34 33 31 29 28 26 26 26 32 34 37 34 33 32 31 29 29 29 30 31 30 30 31 32
32 32 32 32 31 31 31 32 32 33 33 33 33 34 34 34 34 33 33 33 33 31 30 28 27 26 26 31 34 36 33 34 33 32 31 30 29 32 34 30 29 29 31
32 32 32 31 30 29 31 31 30 31 31 32 33 34 34 34 33 33 32 32 32 31 30 29 27 29 28 31 33 33 33 33 33 34 32 35 31 33 34 32 29 29 30
32 32 30 28 28 29 30 29 29 28 30 32 33 33 33 33 33 33 33 32 32 31 30 29 28 26 27 27 32 34 32 32 32 32 32 32 35 35 34 34 30 30 30
31 29 28 25 26 27 28 26 26 28 30 32 32 31 31 32 32 33 33 33 31 30 30 29 28 27 26 30 32 34 34 35 32 31 32 32 34 36 36 34 34 34 32
28 28 27 26 26 26 25 24 25 26 27 29 27 27 29 32 33 32 33 32 32 30 30 29 28 28 27 26 31 33 34 35 35 33 33 33 33 35 36 35 34 35 33
25 24 25 26 26 25 22 24 24 25 26 26 24 26 28 30 30 32 33 31 31 31 31 30 29 29 28 26 26 27 28 32 35 35 35 34 33 34 33 34 34 32 31
24 25 26 27 26 24 22 22 23 24 25 24 25 25 26 28 29 30 31 32 32 33 32 33 33 31 31 30 30 29 27 30 32 33 34 34 34 31 32 33 32 31 31
30 31 31 29 26 22 22 23 24 25 25 24 23 24 27 28 28 28 29 32 34 36 37 37 37 35 37 38 38 37 36 33 34 32 33 32 32 30 31 30 30 29 30
Lifted_Index
9 9 10 10 11 11 11 11 11 11 11 12 13 13 14 14 14 13 13 13 13 13 12 12 11 11 10 9 9 8 8 7 5 3 2 1 -0 -2 -2 -2 -2 -1 -2
9 9 9 10 10 10 10 10 10 11 11 12 12 13 13 14 14 14 13 13 13 13 12 12 11 11 10 9 8 8 7 6 5 3 2 1 -0 -1 -2 -2 -1 -1 -1
9 9 9 9 9 9 9 10 10 10 11 11 12 12 13 14 14 14 14 14 14 13 13 12 12 11 10 9 9 8 7 6 4 3 2 1 -0 -1 -2 -2 -1 -0 -0
9 9 9 9 9 9 9 9 10 10 10 11 11 12 13 14 14 14 14 14 14 14 14 13 12 11 11 10 9 8 7 6 4 3 2 1 0 -0 -0 -0 -0 0 1
9 9 9 9 9 9 10 9 10 10 10 10 11 12 13 14 14 14 14 14 14 14 14 13 13 12 11 10 9 9 8 7 5 4 2 1 1 1 1 1 2 2 2
9 9 10 10 10 10 10 10 10 10 10 10 11 12 13 14 14 14 15 15 14 14 14 14 13 13 12 11 10 9 9 8 6 5 3 2 2 2 2 3 3 4 4
10 10 10 10 10 10 10 10 10 10 10 10 11 11 12 13 14 15 15 15 15 14 14 14 14 13 13 12 11 10 9 9 8 7 6 4 4 3 3 4 4 4 5
10 10 9 9 9 9 9 10 9 10 10 10 11 11 12 13 14 15 15 15 15 15 15 14 14 14 13 12 12 11 10 9 9 8 8 7 6 5 5 5 5 5 5
10 10 9 9 9 9 9 10 10 10 11 11 12 12 13 13 14 15 16 16 16 16 16 15 15 14 14 13 12 12 11 10 10 10 9 8 8 7 7 6 6 6 6
9 9 9 9 9 10 10 11 11 12 12 13 13 14 14 14 14 15 16 16 16 16 16 16 16 16 15 14 13 13 12 12 12 12 11 10 9 9 9 8 8 7 7
9 9 9 9 10 10 11 12 12 13 13 14 14 15 15 15 15 15 15 16 16 16 16 16 16 16 17 16 16 15 15 15 15 15 14 13 12 12 11 10 10 9 9
10 10 10 10 10 10 11 12 13 13 14 14 14 15 15 15 15 15 15 15 16 16 16 16 16 16 17 18 18 18 18 18 18 18 18 17 17 16 15 14 13 12 12
10 10 10 10 10 11 11 12 13 13 14 14 14 14 15 15 15 15 15 15 15 15 15 15 16 16 16 18 19 19 20 20 20 20 20 20 20 19 18 18 17 16 16
11 11 11 11 11 11 12 13 13 13 14 14 14 14 14 14 15 15 15 15 15 15 15 15 15 16 16 17 18 19 20 20 20 20 20 20 20 20 20 20 19 19 19
10 10 11 11 12 12 13 13 13 13 14 14 14 14 14 14 14 15 14 14 15 15 14 15 15 15 16 16 17 18 20 20 20 20 20 20 20 20 20 20 20 20 20
10 10 11 12 13 13 13 13 13 13 14 14 14 14 14 14 14 14 14 14 14 15 15 14 15 15 16 16 17 18 19 20 20 20 20 20 20 20 20 20 20 20 20
10 10 11 13 13 13 13 13 13 14 14 14 14 14 14 14 14 14 14 14 14 15 15 15 15 15 15 16 17 18 18 19 20 20 20 20 20 20 20 20 20 19 19
10 11 12 13 13 13 13 13 13 13 13 14 14 14 14 14 15 15 15 15 15 15 15 15 15 15 15 16 17 17 17 18 19 20 20 20 19 19 19 19 19 18 18
10 11 12 13 14 14 14 14 14 14 14 14 15 15 15 15 15 15 15 15 15 15 14 15 15 14 15 16 16 17 16 16 17 18 19 19 19 18 18 17 17 17 18
10 11 12 13 14 15 16 15 15 15 16 16 16 17 16 16 16 16 16 15 15 15 14 14 14 14 14 14 15 16 15 14 14 15 17 17 17 17 16 16 16 17 17
10 11 12 13 15 16 17 16 16 16 17 17 17 17 17 17 17 17 16 15 15 14 14 13 13 12 12 13 13 14 14 13 12 12 13 15 16 16 15 15 16 16 17
10 11 12 13 15 15 16 15 16 16 17 17 16 16 17 17 17 17 16 15 15 14 13 12 12 11 11 11 11 12 12 12 11 10 11 13 15 15 14 14 14 15 16
11 11 12 13 14 14 14 14 15 16 17 16 16 16 16 16 16 16 15 15 14 14 13 12 11 10 10 10 10 10 10 11 10 10 10 11 13 14 14 13 14 14 15
10 10 11 12 12 13 13 14 15 16 16 16 15 15 15 15 15 15 15 15 14 14 13 12 11 10 9 9 8 8 8 9 9 10 9 10 11 12 12 12 13 14 15
10 10 11 11 11 12 13 13 14 15 15 15 15 15 15 15 15 15 15 14 14 13 13 12 12 11 9 8 7 7 6 7 8 9 8 8 9 9 10 11 12 14 14
10 10 11 11 11 12 12 12 13 14 14 14 14 14 14 14 14 14 14 14 13 13 12 12 12 11 10 8 7 6 5 6 7 8 7 7 7 8 9 10 12 13 14